User: anonymous   Login
Location: Unspecified
(0.0000°N, 0.0000°E)
Time: 23:36:23
(UTC+00:00)
Language:

USA 254 - Orbit

View from above orbital plane
View from above orbital plane
View from above satellite
View from above satellite

Ground track
Ground track

The orbit data is extracted from the following two-line orbital elements,

1 40100U 14043B   17320.42531734 0.00000000  00000-0  00000-0 0    02
2 40100   0.0090  87.3847 0001342 231.2085 128.7866  1.00443145    04
Epoch (UTC): 16 November 2017 10:12:27
Eccentricity: 0.0001342
inclination: 0.0090°
perigee height: 35732 km
apogee height: 35744 km
right ascension of ascending node: 87.3847°
argument of perigee: 231.2085°
revolutions per day: 1.00443145
mean anomaly at epoch: 128.7866°
orbit number at epoch: 0

The dashed part of the orbit path shows where the satellite is in the earth's shadow,  

DLR